Regional Weather Roundup
Issued by NWS

Home | Current Version | Previous Version | Graphics & Text | Print | Product List | Glossary On
Versions: 1 2 3 4 5 6 7 8 9 10 11 12 13 14 15 16 17 18 19 20 21 22 23 24 25 26 27 28 29 30 31 32 33 34 35 36 37 38 39 40 41 42 43 44 45 46 47 48 49 50
000
ASUS43 KOAX 190610
RWRNE

WEATHER ROUNDUP FOR NEBRASKA
NATIONAL WEATHER SERVICE OMAHA NE
1200 AM CST SUN FEB 19 2017

NOTES: SATELLITE DATA IS BEING USED TO AUGMENT CLOUD COVER ABOVE
       12000 FEET.
       "FAIR" INDICATES FEW OR NO CLOUDS BELOW 12,000 FEET WITH NO
       SIGNIFICANT WEATHER AND/OR OBSTRUCTIONS TO VISIBILITY.

  * THESE STATIONS DO NOT REPORT WEATHER SUCH AS RAIN...SNOW OR FOG.

NEZ001>004-019>022-054>056-190700-
NEBRASKA PANHANDLE

CITY           SKY/WX    TMP DP  RH WIND       PRES   REMARKS
SCOTTSBLUFF    PTCLDY    46  27  47 E8        29.66F
6HR MIN TEMP:  45; 6HR MAX TEMP:  57;

ALLIANCE       CLOUDY    42  31  64 SE9       29.68S
6HR MIN TEMP:  41; 6HR MAX TEMP:  56;

CHADRON        MOCLDY    50  30  46 S15       29.64R
6HR MIN TEMP:  45; 6HR MAX TEMP:  60;

KIMBALL        CLOUDY    46  25  44 S7        29.67F
SIDNEY         CLOUDY    43  27  53 SE9       29.68F
6HR MIN TEMP:  40; 6HR MAX TEMP:  57;

$$

NEZ057>060-069>072-079>082-190700-
SOUTHWEST NEBRASKA

CITY           SKY/WX    TMP DP  RH WIND       PRES   REMARKS
NORTH PLATTE   PTCLDY    38  31  76 E9        29.73F WCI  31
6HR MIN TEMP:  37; 6HR MAX TEMP:  58;

IMPERIAL       PTCLDY    45  33  63 SE7       29.72S
6HR MIN TEMP:  41; 6HR MAX TEMP:  56;

LEXINGTON      PTCLDY    39  34  80 E5        29.75F
MCCOOK         PTCLDY    47  35  63 CALM      29.73F
6HR MIN TEMP:  44; 6HR MAX TEMP:  57;

OGALLALA       CLOUDY    46  35  64 NE6       29.71F
$$

NEZ005>010-023>029-035>040-094-190700-
NORTH CENTRAL NEBRASKA

CITY           SKY/WX    TMP DP  RH WIND       PRES   REMARKS
VALENTINE      PTCLDY    46  31  55 S12       29.71F
6HR MIN TEMP:  41; 6HR MAX TEMP:  56;

AINSWORTH      PTCLDY    41  32  71 S9        29.73F
BROKEN BOW     CLOUDY    34  30  85 CALM      29.75F
6HR MIN TEMP:  31; 6HR MAX TEMP:  57;

O`NEILL        PTCLDY    45  34  66 SE9       29.76F
ORD            PTCLDY    42  29  59 CALM      29.77S
6HR MIN TEMP:  38; 6HR MAX TEMP:  57;

THEDFORD       CLOUDY    40  32  75 CALM      29.74F
$$

NEZ041-046>049-061>064-073>077-083>087-190700-
SOUTH CENTRAL NEBRASKA

CITY           SKY/WX    TMP DP  RH WIND       PRES   REMARKS
GRAND ISLAND   CLEAR     46  35  65 SE8       29.79R
6HR MIN TEMP:  44; 6HR MAX TEMP:  57;

AURORA         CLOUDY    43  32  65 SE8       29.79S
HASTINGS       CLOUDY    50  38  63 S7        29.80R
6HR MIN TEMP:  41; 6HR MAX TEMP:  62;

HEBRON         MOCLDY    49  40  70 S6        29.80S
HOLDREGE       PTCLDY    47  37  69 S9        29.76F
KEARNEY *      PTCLDY    41  30  65 CALM      29.78S
YORK           PTCLDY    46  32  57 SE9       29.80S
$$

NEZ011>018-030>034-042>045-190700-
NORTHEAST NEBRASKA

CITY           SKY/WX    TMP DP  RH WIND       PRES   REMARKS
NORFOLK        PTCLDY    41  33  73 SE6       29.80R
6HR MIN TEMP:  41; 6HR MAX TEMP:  54;

ALBION         CLOUDY    43  33  68 SE5       29.79F
BLAIR          PTCLDY    50  34  54 E6        29.82S
FREMONT        PTCLDY    44  35  68 CALM      29.82S
TEKAMAH        MOCLDY    37  33  85 CALM      29.83R
6HR MIN TEMP:  37; 6HR MAX TEMP:  56;

WAYNE          MOCLDY    40  35  80 SW3       29.81S
$$

NEZ050>053-065>068-078-088>093-190700-
SOUTHEAST NEBRASKA

CITY           SKY/WX    TMP DP  RH WIND       PRES   REMARKS
LINCOLN        PTCLDY    42  31  64 CALM      29.83R
6HR MIN TEMP:  38; 6HR MAX TEMP:  61;

OMAHA EPPLEY   CLOUDY    40  32  73 CALM      29.83R
6HR MIN TEMP:  39; 6HR MAX TEMP:  59;

BEATRICE       PTCLDY    47  36  64 SE3       29.82S
FALLS CITY     CLEAR     46  35  65 SE6       29.84R
6HR MIN TEMP:  45; 6HR MAX TEMP:  63;

NEBRASKA CITY  CLEAR     49  27  43 SE7       29.83S
PLATTSMOUTH    CLOUDY    47  28  47 SE7       29.82S
$$

NEZ044-045-051>053-067-190700-
OMAHA AREA

CITY           SKY/WX    TMP DP  RH WIND       PRES   REMARKS
OMAHA EPPLEY   CLOUDY    40  32  73 CALM      29.83R
6HR MIN TEMP:  39; 6HR MAX TEMP:  59;

BLAIR          PTCLDY    50  34  54 E6        29.82S
FREMONT        PTCLDY    44  35  68 CALM      29.82S
MILLARD        PTCLDY    42  36  77 CALM      29.83R
OFFUTT AFB     PTCLDY    36  35  96 CALM      29.82S
PLATTSMOUTH    CLOUDY    47  28  47 SE7       29.82S
WAHOO          FAIR      45  32  60 CALM      29.82R
$$




USA.gov is the U.S. government's official web portal to all federal, state and local government web resources and services.